Regional Weather Roundup
Issued by NWS

Home | Current Version | Previous Version | Graphics & Text | Print | Product List | Glossary On
Versions: 1 2 3 4 5 6 7 8 9 10 11 12 13 14 15 16 17 18 19 20 21 22 23 24 25 26 27 28 29 30 31 32 33 34 35 36 37 38 39 40 41 42 43 44 45 46 47 48 49 50
000
ASUS45 KABQ 190001
RWRNM
WEATHER ROUNDUP FOR NEW MEXICO
NATIONAL WEATHER SERVICE ALBUQUERQUE NM
500 PM MST THU DEC 18 2014

NOTE: "FAIR" MEANS FEW OR NO CLOUDS BELOW 12,000 FEET AGL WITH NO
       SIGNIFICANT WEATHER OR OBSTRUCTIONS TO VISION.

      THIS PRODUCT IS RELEASED AS TWO VERSIONS.  ONE VERSION NEAR
      THE TOP OF THE HOUR CONTAINING PRELIMINARY DATA FROM ALBUQUERQUE
      AND OTHER STATIONS.  A FINAL VERSION WITH ADDITIONAL DATA IS
      ISSUED ABOUT 10 MINUTES AFTER THE HOUR.

NMZ501-503-504-510>518-190100-
NORTHWEST PLATEAU/NORTHCENTRAL MOUNTAINS

CITY           SKY/WX    TMP DP  RH WIND       PRES   REMARKS
FARMINGTON     CLEAR     37  26  64 W6        30.10R WCI  32
6HR MIN TEMP:  36; 6HR MAX TEMP:  41;

SANTA FE       CLOUDY    35  24  64 W3        30.07S
6HR MIN TEMP:  35; 6HR MAX TEMP:  40;

TAOS           CLOUDY    30  23  74 N5        30.08S WCI  25

$$
NMZ402-403-502-505>509-190100-
WESTCENTRAL MOUNTAINS/SOUTHWEST MOUNTAINS

CITY           SKY/WX    TMP DP  RH WIND       PRES   REMARKS
GALLUP         LGT SNOW  32  28  85 N9        30.12R VSB 1   WCI  24
6HR MIN TEMP:  32; 6HR MAX TEMP:  37; 6HR PCP: TRACE;

GRANTS         CLOUDY    33  27  81 NW9G18    30.13R WCI  25
SILVER CITY    MOCLDY    37  36  93 N8        30.10R WCI  31

$$
NMZ407-409-411-412-190100-
SOUTHERN DESERTS

CITY           SKY/WX    TMP DP  RH WIND       PRES   REMARKS
DEMING         CLOUDY    44  40  85 W7        30.08S
6HR MIN TEMP:  40; 6HR MAX TEMP:  52; 6HR PCP:  0.03;

HOLLOMAN AFB   CLOUDY    51  34  53 VRB7      30.05R
ALAMOGORDO     CLOUDY    48  34  57 S8        30.07R
T OR C         LGT RAIN  44  37  76 E7        30.06R
6HR MIN TEMP:  44; 6HR MAX TEMP:  50; 6HR PCP:  0.01;


$$
NMZ519>523-190100-
CENTRAL VALLEYS/CENTRAL HIGHLANDS

CITY           SKY/WX    TMP DP  RH WIND       PRES   REMARKS
ALBUQUERQUE    CLOUDY    42  26  53 NW8       30.10R
6HR MIN TEMP:  39; 6HR MAX TEMP:  45;

DOUBLE EAGLE   MOCLDY    37  28  70 VRB7      30.10R WCI  32
MORIARTY ARPT  CLOUDY    37  24  57 NW6       30.09R WCI  33
6HR MIN TEMP:  37; 6HR MAX TEMP:  45;

CLINES CORNERS MOCLDY    33  24  69 W13       30.04R WCI  24
6HR MIN TEMP:  33; 6HR MAX TEMP:  39;

BELEN          CLOUDY    40  33  76 W7        30.11R
6HR MIN TEMP:  38; 6HR MAX TEMP:  45;

SOCORRO        NOT AVBL

$$
NMZ524>526-539-540-190100-
SOUTHCENTRAL MOUNTAINS

CITY           SKY/WX    TMP DP  RH WIND       PRES   REMARKS
RUIDOSO        CLOUDY    37  27  65 SW9       30.09R WCI  31

$$
NMZ527>531-190100-
NORTHEAST HIGHLANDS/NORTHEAST PLAINS

CITY           SKY/WX    TMP DP  RH WIND       PRES   REMARKS
LAS VEGAS      CLOUDY    32  19  58 S7        30.01R WCI  26
6HR MIN TEMP:  32; 6HR MAX TEMP:  45;

RATON          PTCLDY    37  24  59 S6        30.01R WCI  32
6HR MIN TEMP:  37; 6HR MAX TEMP:  46;

CLAYTON        MOCLDY    31  29  92 E5        30.06R WCI  26
6HR MIN TEMP:  31; 6HR MAX TEMP:  48;


$$
NMZ532>537-190100-
EASTCENTRAL PLAINS

CITY           SKY/WX    TMP DP  RH WIND       PRES   REMARKS
TUCUMCARI      CLOUDY    43  31  62 E6        30.04R
6HR MIN TEMP:  34; 6HR MAX TEMP:  46;

CANNON AFB     CLOUDY    50  20  31 W6        30.04R
6HR MIN TEMP:  50; 6HR MAX TEMP:  55;

CLOVIS AIRPORT CLOUDY    48  19  32 W5        30.04R

$$
NMZ028-029-538-190100-
SOUTHEAST PLAINS

CITY           SKY/WX    TMP DP  RH WIND       PRES   REMARKS
ROSWELL        CLOUDY    52  31  44 E5        30.02F
6HR MIN TEMP:  52; 6HR MAX TEMP:  56;

ARTESIA        CLOUDY    54  34  47 S8        30.03S
CARLSBAD       CLOUDY    57  34  41 CALM      30.01S
6HR MIN TEMP:  57; 6HR MAX TEMP:  64;

HOBBS          CLEAR     55  32  41 CALM      30.04S


$$


USA.gov is the U.S. government's official web portal to all federal, state and local government web resources and services.